TimeCST,TemperatureF,Dew PointF,Humidity,Sea Level PressureIn,VisibilityMPH,Wind Direction,Wind SpeedMPH,Gust SpeedMPH,PrecipitationIn,Events,Conditions,WindDirDegrees,DateUTC
12:53 AM,35.1,28.0,76,29.97,9.0,SW,4.6,-,N/A,,Scattered Clouds,220,2013-02-13 06:53:00
1:53 AM,36.0,27.0,70,29.96,10.0,WSW,5.8,-,N/A,,Partly Cloudy,250,2013-02-13 07:53:00
2:53 AM,34.0,27.0,75,29.94,10.0,SW,5.8,-,N/A,,Clear,230,2013-02-13 08:53:00
3:53 AM,35.1,26.1,70,29.92,10.0,WSW,8.1,-,N/A,,Clear,240,2013-02-13 09:53:00
4:53 AM,34.0,25.0,70,29.91,10.0,SW,6.9,-,N/A,,Clear,230,2013-02-13 10:53:00
5:53 AM,32.0,26.1,79,29.91,10.0,WSW,8.1,-,N/A,,Clear,240,2013-02-13 11:53:00
6:53 AM,30.9,27.0,85,29.92,10.0,SW,6.9,-,N/A,,Clear,230,2013-02-13 12:53:00
7:53 AM,32.0,27.0,82,29.92,10.0,WSW,8.1,-,N/A,,Clear,240,2013-02-13 13:53:00
8:53 AM,35.1,27.0,72,29.93,10.0,West,10.4,-,N/A,,Clear,260,2013-02-13 14:53:00
9:53 AM,37.9,28.0,68,29.94,10.0,West,8.1,-,N/A,,Clear,270,2013-02-13 15:53:00
10:53 AM,42.1,28.9,60,29.94,10.0,West,8.1,-,N/A,,Clear,270,2013-02-13 16:53:00
11:53 AM,45.0,28.9,53,29.93,10.0,West,12.7,-,N/A,,Clear,260,2013-02-13 17:53:00
12:53 PM,48.9,30.0,48,29.90,10.0,West,11.5,-,N/A,,Clear,280,2013-02-13 18:53:00
1:53 PM,50.0,30.0,46,29.88,10.0,West,10.4,21.9,N/A,,Clear,260,2013-02-13 19:53:00
2:53 PM,51.1,28.0,41,29.86,10.0,West,13.8,21.9,N/A,,Clear,260,2013-02-13 20:53:00
3:53 PM,52.0,28.9,41,29.85,10.0,WSW,13.8,19.6,N/A,,Partly Cloudy,240,2013-02-13 21:53:00
4:53 PM,51.1,28.9,43,29.84,10.0,SW,12.7,-,N/A,,Clear,220,2013-02-13 22:53:00
5:53 PM,46.9,32.0,56,29.85,10.0,SSW,10.4,-,N/A,,Clear,210,2013-02-13 23:53:00
6:53 PM,44.1,33.1,65,29.86,10.0,SSW,10.4,-,N/A,,Clear,210,2013-02-14 00:53:00
7:53 PM,42.1,33.1,70,29.86,10.0,SSW,11.5,-,N/A,,Clear,210,2013-02-14 01:53:00
8:53 PM,41.0,32.0,70,29.86,10.0,SSW,11.5,-,N/A,,Clear,210,2013-02-14 02:53:00
9:53 PM,41.0,32.0,70,29.86,10.0,SSW,12.7,-,N/A,,Clear,210,2013-02-14 03:53:00
10:53 PM,39.9,30.9,70,29.86,10.0,SW,11.5,-,N/A,,Clear,220,2013-02-14 04:53:00
11:53 PM,41.0,30.9,67,29.85,10.0,SW,15.0,-,N/A,,Clear,230,2013-02-14 05:53:00